,,,PA_Meas_PMT16A,,PR_Meas_QMR101_102,,RH_Meas_QMH101,,SR_Meas_QMS101,,TA_Meas_QMH101,,GenWind,,GenWind,
date,time,status,PA,status,PR,status,RH,status,SR,status,TA,status,DirAvg,status,SpdAvg,
2010-10-08, 00:00:04,VALID,1003.19,VALID,0,VALID,80.088,VALID,403.961,VALID,29.3748,VALID,154,VALID,1.18086,
2010-10-08, 00:01:04,VALID,1003.21,VALID,0,VALID,79.5006,VALID,482.3,VALID,29.431,VALID,168,VALID,2.54883,
2010-10-08, 00:02:04,VALID,1003.18,VALID,0,VALID,78.5317,VALID,780.268,VALID,29.4723,VALID,157,VALID,2.31133,
2010-10-08, 00:03:04,VALID,1003.19,VALID,0,VALID,78.463,VALID,836.281,VALID,29.4918,VALID,151,VALID,2.09531,
2010-10-08, 00:04:04,VALID,1003.18,VALID,0,VALID,80.8356,VALID,903.759,VALID,29.6673,VALID,166,VALID,1.43867,
2010-10-08, 00:05:04,VALID,1003.15,VALID,0,VALID,77.9977,VALID,763.876,VALID,29.9403,VALID,131,VALID,2.39297,
2010-10-08, 00:06:04,VALID,1003.1,VALID,0,VALID,76.5863,VALID,914.721,VALID,29.9403,VALID,117,VALID,2.46719,
2010-10-08, 00:07:04,VALID,1003.09,VALID,0,VALID,75.6556,VALID,518.201,VALID,29.9988,VALID,159,VALID,3.29375,
2010-10-08, 00:08:04,VALID,1003.02,VALID,0,VALID,76.3956,VALID,525.14,VALID,30.0183,VALID,171,VALID,1.50039,
2010-10-08, 00:09:04,VALID,1003.01,VALID,0,VALID,76.4261,VALID,462.69,VALID,29.9208,VALID,143,VALID,2.47656,
2010-10-08, 00:10:04,VALID,1002.9,VALID,0,VALID,76.2125,VALID,450.421,VALID,29.7258,VALID,129,VALID,2.11836,
2010-10-08, 00:11:04,VALID,1002.96,VALID,0,VALID,76.3346,VALID,433.125,VALID,29.5698,VALID,144,VALID,2.51875,
2010-10-08, 00:12:04,VALID,1002.9,VALID,0,VALID,78.1274,VALID,431.516,VALID,29.4895,VALID,183,VALID,2.64492,
2010-10-08, 00:13:04,VALID,1002.9,VALID,0,VALID,76.7542,VALID,431.415,VALID,29.509,VALID,160,VALID,2.96055,
2010-10-08, 00:14:04,VALID,1002.87,VALID,0,VALID,78.5546,VALID,471.238,VALID,29.3748,VALID,167,VALID,1.93086,
2010-10-08, 00:15:04,VALID,1002.88,VALID,0,VALID,78.4859,VALID,495.775,VALID,29.3358,VALID,147,VALID,2.60195,
2010-10-08, 00:16:04,VALID,1002.87,VALID,0,VALID,79.4853,VALID,513.072,VALID,29.3358,VALID,159,VALID,1.59531,
2010-10-08, 00:17:04,VALID,1002.88,VALID,0,VALID,80.5762,VALID,410.699,VALID,29.3748,VALID,139,VALID,1.44531,
2010-10-08, 00:18:04,VALID,1002.87,VALID,0,VALID,79.1039,VALID,359.211,VALID,29.314,VALID,142,VALID,1.36992,
2010-10-08, 00:19:04,VALID,1002.87,VALID,0,VALID,79.2564,VALID,376.508,VALID,29.314,VALID,172,VALID,1.9043,
2010-10-08, 00:20:04,VALID,1002.89,VALID,0,VALID,79.5997,VALID,356.797,VALID,29.2968,VALID,166,VALID,1.54336,
2010-10-08, 00:21:04,VALID,1002.86,VALID,0,VALID,78.8369,VALID,343.121,VALID,29.2578,VALID,189,VALID,2.76523,
2010-10-08, 00:22:04,VALID,1002.89,VALID,0,VALID,78.1655,VALID,328.439,VALID,29.1213,VALID,177,VALID,2.53828,
2010-10-08, 00:23:04,VALID,1002.89,VALID,0,VALID,80.3321,VALID,304.203,VALID,28.9826,VALID,166,VALID,1.95898,
2010-10-08, 00:24:04,VALID,1002.89,VALID,0,VALID,79.6531,VALID,304.203,VALID,28.8873,VALID,181,VALID,2.1082,
2010-10-08, 00:25:04,VALID,1002.89,VALID,0,VALID,81.0416,VALID,283.085,VALID,28.8288,VALID,193,VALID,2.1207,
2010-10-08, 00:26:04,VALID,1002.87,VALID,0,VALID,81.8579,VALID,283.889,VALID,28.8483,VALID,154,VALID,1.32383,
2010-10-08, 00:27:04,VALID,1002.81,VALID,0,VALID,81.1789,VALID,281.878,VALID,28.9068,VALID,156,VALID,2.10508,
2010-10-08, 00:28:04,VALID,1002.79,VALID,0,VALID,79.9736,VALID,282.682,VALID,28.9241,VALID,166,VALID,1.61484,
2010-10-08, 00:29:04,VALID,1002.78,VALID,0,VALID,80.8738,VALID,273.028,VALID,28.9263,VALID,169,VALID,1.79258,
2010-10-08, 00:30:04,VALID,1002.74,VALID,0,VALID,80.3397,VALID,274.235,VALID,28.9241,VALID,159,VALID,2.2293,
2010-10-08, 00:31:04,VALID,1002.77,VALID,0,VALID,78.8216,VALID,282.28,VALID,28.8656,VALID,128,VALID,2.36641,
2010-10-08, 00:32:04,VALID,1002.72,VALID,0,VALID,79.9202,VALID,284.291,VALID,28.8461,VALID,161,VALID,1.65391,
2010-10-08, 00:33:04,VALID,1002.74,VALID,0,VALID,80.4999,VALID,282.984,VALID,28.8461,VALID,163,VALID,2.90234,
2010-10-08, 00:34:04,VALID,1002.72,VALID,0,VALID,80.4618,VALID,283.085,VALID,28.8267,VALID,156,VALID,1.75625,
2010-10-08, 00:35:04,VALID,1002.76,VALID,0,VALID,80.2863,VALID,287.007,VALID,28.8072,VALID,120,VALID,1.56875,
2010-10-08, 00:36:04,VALID,1002.75,VALID,0,VALID,79.5616,VALID,288.716,VALID,28.8461,VALID,130,VALID,1.95,
2010-10-08, 00:37:04,VALID,1002.74,VALID,0,VALID,79.8744,VALID,285.9,VALID,28.8483,VALID,148,VALID,1.85938,
2010-10-08, 00:38:04,VALID,1002.74,VALID,0,VALID,80.2024,VALID,289.32,VALID,28.8873,VALID,148,VALID,2.18672,
2010-10-08, 00:39:04,VALID,1002.73,VALID,0,VALID,80.1872,VALID,291.834,VALID,28.8072,VALID,146,VALID,1.98984,
2010-10-08, 00:40:04,VALID,1002.7,VALID,0,VALID,80.416,VALID,294.348,VALID,28.7682,VALID,129,VALID,2.20781,
2010-10-08, 00:41:04,VALID,1002.68,VALID,0,VALID,81.2323,VALID,297.767,VALID,28.7682,VALID,148,VALID,1.2457,
2010-10-08, 00:42:04,VALID,1002.64,VALID,0,VALID,80.4694,VALID,300.382,VALID,28.8072,VALID,148,VALID,1.95,
2010-10-08, 00:43:04,VALID,1002.6,VALID,0,VALID,81.6595,VALID,303.398,VALID,28.8851,VALID,143,VALID,1.34297,
2010-10-08, 00:44:04,VALID,1002.6,VALID,0,VALID,81.3696,VALID,306.013,VALID,28.9631,VALID,144,VALID,1.73008,
2010-10-08, 00:45:04,VALID,1002.6,VALID,0,VALID,80.4694,VALID,309.633,VALID,28.9046,VALID,142,VALID,1.41367,
2010-10-08, 00:46:04,VALID,1002.57,VALID,0,VALID,79.2488,VALID,315.064,VALID,28.9046,VALID,153,VALID,2.3,
2010-10-08, 00:47:04,VALID,1002.53,VALID,0,VALID,81.2781,VALID,316.472,VALID,28.9436,VALID,151,VALID,2.30078,
2010-10-08, 00:48:04,VALID,1002.48,VALID,0,VALID,80.9729,VALID,327.735,VALID,28.9241,VALID,162,VALID,2.06055,
2010-10-08, 00:49:04,VALID,1002.45,VALID,0,VALID,80.3092,VALID,341.009,VALID,28.8656,VALID,127,VALID,2.02891,
2010-10-08, 00:50:04,VALID,1002.44,VALID,0,VALID,81.2247,VALID,349.456,VALID,28.8851,VALID,136,VALID,1.69102,
2010-10-08, 00:51:04,VALID,1002.46,VALID,0,VALID,81.4459,VALID,364.239,VALID,28.8851,VALID,125,VALID,2.46406,
2010-10-08, 00:52:04,VALID,1002.42,VALID,0,VALID,80.9272,VALID,389.983,VALID,28.805,VALID,138,VALID,2.17695,
2010-10-08, 00:53:04,VALID,1002.45,VALID,0,VALID,79.7676,VALID,417.738,VALID,28.8072,VALID,141,VALID,2.75938,
2010-10-08, 00:54:04,VALID,1002.4,VALID,0,VALID,80.1795,VALID,461.785,VALID,28.8483,VALID,159,VALID,2.14922,
2010-10-08, 00:55:04,VALID,1002.36,VALID,0,VALID,81.2018,VALID,477.171,VALID,28.9263,VALID,133,VALID,1.24453,
2010-10-08, 00:56:04,VALID,1002.35,VALID,0,VALID,80.8661,VALID,504.424,VALID,29.0823,VALID,164,VALID,1.15313,
2010-10-08, 00:57:04,VALID,1002.28,VALID,0,VALID,79.5235,VALID,514.48,VALID,29.1408,VALID,147,VALID,1.28516,
2010-10-08, 00:58:04,VALID,1002.32,VALID,0,VALID,79.1573,VALID,537.811,VALID,29.1798,VALID,115,VALID,2.35977,
2010-10-08, 00:59:04,VALID,1002.29,VALID,0,VALID,80.0575,VALID,567.678,VALID,29.1581,VALID,110,VALID,1.60117,
2010-10-08, 01:00:04,VALID,1002.27,VALID,0,VALID,80.5762,VALID,584.572,VALID,29.2361,VALID,127,VALID,2.10625,
2010-10-08, 01:01:04,VALID,1002.3,VALID,0,VALID,79.4014,VALID,616.049,VALID,29.2166,VALID,140,VALID,2.01133,
2010-10-08, 01:02:04,VALID,1002.27,VALID,0,VALID,79.7065,VALID,653.961,VALID,29.2166,VALID,123,VALID,2.01797,
2010-10-08, 01:03:04,VALID,1002.25,VALID,0,VALID,79.3098,VALID,675.28,VALID,29.2728,VALID,139,VALID,1.64063,
2010-10-08, 01:04:04,VALID,1002.23,VALID,0,VALID,77.8604,VALID,722.344,VALID,29.3943,VALID,164,VALID,1.60156,
2010-10-08, 01:05:04,VALID,1002.22,VALID,0,VALID,78.7224,VALID,626.407,VALID,29.431,VALID,144,VALID,1.05625,
2010-10-08, 01:06:04,VALID,1002.19,VALID,0,VALID,79.1039,VALID,630.731,VALID,29.5285,VALID,148,VALID,1.35469,
2010-10-08, 01:07:04,VALID,1002.15,VALID,0,VALID,76.8457,VALID,620.272,VALID,29.6455,VALID,144,VALID,2.13867,
2010-10-08, 01:08:04,VALID,1002.15,VALID,0,VALID,77.9824,VALID,603.78,VALID,29.665,VALID,121,VALID,1.39375,
2010-10-08, 01:09:04,VALID,1002.11,VALID,0,VALID,76.8457,VALID,548.671,VALID,29.665,VALID,93,VALID,1.19531,
2010-10-08, 01:10:04,VALID,1002.09,VALID,0,VALID,76.5787,VALID,575.12,VALID,29.6845,VALID,159,VALID,1.18477,
2010-10-08, 01:11:04,VALID,1002.09,VALID,0,VALID,78.4401,VALID,548.068,VALID,29.782,VALID,169,VALID,1.23516,
2010-10-08, 01:12:04,VALID,1002.05,VALID,0,VALID,77.7307,VALID,607.903,VALID,29.782,VALID,145,VALID,1.90117,
2010-10-08, 01:13:04,VALID,1002.03,VALID,0,VALID,77.6467,VALID,570.091,VALID,29.8233,VALID,163,VALID,1.91797,
2010-10-08, 01:14:04,VALID,1002.05,VALID,0,VALID,77.1585,VALID,537.408,VALID,29.8623,VALID,161,VALID,2.26172,
2010-10-08, 01:15:04,VALID,1002.03,VALID,0,VALID,77.0135,VALID,457.36,VALID,29.7235,VALID,142,VALID,1.30898,
2010-10-08, 01:16:04,VALID,1002,VALID,0,VALID,77.0135,VALID,479.484,VALID,29.7603,VALID,146,VALID,1.24336,
2010-10-08, 01:17:04,VALID,1002,VALID,0,VALID,78.5622,VALID,426.286,VALID,29.8015,VALID,116,VALID,0.820313,
2010-10-08, 01:18:04,VALID,1001.97,VALID,0,VALID,77.0517,VALID,485.015,VALID,29.9185,VALID,163,VALID,1.61914,
2010-10-08, 01:19:04,VALID,1001.92,VALID,0,VALID,75.7548,VALID,491.652,VALID,29.8818,VALID,147,VALID,1.47461,
2010-10-08, 01:20:04,VALID,1001.92,VALID,0,VALID,72.2074,VALID,527.151,VALID,29.782,VALID,129,VALID,2.34297,
2010-10-08, 01:21:04,VALID,1001.86,VALID,0,VALID,73.2067,VALID,529.162,VALID,29.86,VALID,122,VALID,0.910937,
2010-10-08, 01:22:04,VALID,1001.87,VALID,0,VALID,71.6123,VALID,534.693,VALID,29.8795,VALID,120,VALID,2.2043,
2010-10-08, 01:23:04,VALID,1001.83,VALID,0,VALID,70.4832,VALID,517.799,VALID,29.9185,VALID,123,VALID,1.31641,
2010-10-08, 01:24:04,VALID,1001.83,VALID,0,VALID,70.4298,VALID,440.566,VALID,29.9403,VALID,111,VALID,1.71094,
2010-10-08, 01:25:04,VALID,1001.84,VALID,0,VALID,72.955,VALID,485.618,VALID,29.9598,VALID,123,VALID,1.00469,
2010-10-08, 01:26:04,VALID,1001.85,VALID,0,VALID,74.5876,VALID,466.31,VALID,29.9793,VALID,92,VALID,1.74492,
2010-10-08, 01:27:04,VALID,1001.84,VALID,0,VALID,78.196,VALID,479.786,VALID,29.977,VALID,120,VALID,0.838281,
2010-10-08, 01:28:04,VALID,1001.85,VALID,0,VALID,75.1979,VALID,515.888,VALID,30.0596,VALID,209,VALID,1.06016,
2010-10-08, 01:29:04,VALID,1001.86,VALID,0,VALID,76.327,VALID,581.153,VALID,30.0401,VALID,196,VALID,0.416016,
2010-10-08, 01:30:04,VALID,1001.86,VALID,0,VALID,73.489,VALID,488.233,VALID,29.9793,VALID,135,VALID,2.33281,
2010-10-08, 01:31:04,VALID,1001.84,VALID,0,VALID,74.3206,VALID,430.611,VALID,29.9036,VALID,120,VALID,1.34141,
2010-10-08, 01:32:04,VALID,1001.84,VALID,0,VALID,74.0688,VALID,454.545,VALID,29.8428,VALID,123,VALID,0.826563,
2010-10-08, 01:33:04,VALID,1001.83,VALID,0,VALID,75.381,VALID,430.51,VALID,29.9208,VALID,139,VALID,1.80234,
2010-10-08, 01:34:04,VALID,1001.82,VALID,0,VALID,76.4109,VALID,465.305,VALID,29.9036,VALID,160,VALID,1.63281,
2010-10-08, 01:35:04,VALID,1001.79,VALID,0,VALID,76.1362,VALID,668.643,VALID,29.8818,VALID,158,VALID,1.79766,
2010-10-08, 01:36:04,VALID,1001.79,VALID,0,VALID,76.6397,VALID,820.292,VALID,29.9426,VALID,157,VALID,1.29961,
2010-10-08, 01:37:04,VALID,1001.75,VALID,0,VALID,75.381,VALID,918.14,VALID,30.0206,VALID,155,VALID,1.97461,
2010-10-08, 01:38:04,VALID,1001.74,VALID,0,VALID,74.8698,VALID,1014.58,VALID,30.0183,VALID,145,VALID,1.21602,
2010-10-08, 01:39:04,VALID,1001.71,VALID,0,VALID,75.9074,VALID,1041.23,VALID,30.1135,VALID,150,VALID,0.921875,
2010-10-08, 01:40:04,VALID,1001.71,VALID,0,VALID,73.9315,VALID,1045.85,VALID,30.25,VALID,140,VALID,2.20039,
2010-10-08, 01:41:04,VALID,1001.74,VALID,0,VALID,76.0905,VALID,1013.27,VALID,30.3109,VALID,176,VALID,1.25937,
2010-10-08, 01:42:04,VALID,1001.75,VALID,0,VALID,74.3663,VALID,1015.08,VALID,30.6424,VALID,125,VALID,1.53711,
2010-10-08, 01:43:04,VALID,1001.76,VALID,0,VALID,72.5888,VALID,1027.55,VALID,30.8375,VALID,102,VALID,1.75352,
2010-10-08, 01:44:04,VALID,1001.72,VALID,0,VALID,72.4667,VALID,1176.79,VALID,30.8375,VALID,170,VALID,1.63555,
2010-10-08, 01:45:04,VALID,1001.74,VALID,0,VALID,74.2595,VALID,1169.65,VALID,30.7813,VALID,208,VALID,0.916406,
2010-10-08, 01:46:04,VALID,1001.71,VALID,0,VALID,73.1915,VALID,580.449,VALID,30.9155,VALID,116,VALID,1.41484,
2010-10-08, 01:47:04,VALID,1001.67,VALID,0,VALID,73.3288,VALID,1032.08,VALID,30.8789,VALID,129,VALID,0.614844,
2010-10-08, 01:48:04,VALID,1001.63,VALID,0,VALID,72.1387,VALID,798.973,VALID,30.8375,VALID,150,VALID,2.3082,
2010-10-08, 01:49:04,VALID,1001.65,VALID,0,VALID,72.7566,VALID,513.173,VALID,30.7985,VALID,179,VALID,2.24062,
2010-10-08, 01:50:04,VALID,1001.55,VALID,0,VALID,70.9638,VALID,1169.65,VALID,30.6815,VALID,218,VALID,2.21836,
2010-10-08, 01:51:04,VALID,1001.63,VALID,0,VALID,73.8018,VALID,967.416,VALID,30.7033,VALID,150,VALID,2.08711,
2010-10-08, 01:52:04,VALID,1001.6,VALID,0,VALID,73.3746,VALID,537.911,VALID,30.701,VALID,166,VALID,2.00664,
2010-10-08, 01:53:04,VALID,1001.55,VALID,0,VALID,73.5577,VALID,1098.45,VALID,30.4864,VALID,174,VALID,3.21758,
2010-10-08, 01:54:04,VALID,1001.54,VALID,0,VALID,75.0987,VALID,958.365,VALID,30.4279,VALID,160,VALID,1.85859,
2010-10-08, 01:55:04,VALID,1001.57,VALID,0,VALID,74.7325,VALID,422.968,VALID,30.3717,VALID,140,VALID,2.3832,
2010-10-08, 01:56:04,VALID,1001.51,VALID,0,VALID,74.6944,VALID,388.274,VALID,30.3717,VALID,104,VALID,2.00039,
2010-10-08, 01:57:04,VALID,1001.54,VALID,0,VALID,74.7325,VALID,953.236,VALID,30.4084,VALID,94,VALID,0.806641,
2010-10-08, 01:58:04,VALID,1001.52,VALID,0,VALID,72.1692,VALID,477.775,VALID,30.5621,VALID,155,VALID,1.12617,
2010-10-08, 01:59:04,VALID,1001.48,VALID,0,VALID,72.6956,VALID,798.068,VALID,30.6815,VALID,196,VALID,0.991406,
2010-10-08, 02:00:04,VALID,1001.45,VALID,0,VALID,72.4591,VALID,419.951,VALID,30.7767,VALID,152,VALID,1.82383,
2010-10-08, 02:01:04,VALID,1001.4,VALID,0,VALID,70.2467,VALID,450.623,VALID,30.5816,VALID,170,VALID,2.26914,
2010-10-08, 02:02:04,VALID,1001.42,VALID,0,VALID,70.4375,VALID,358.105,VALID,30.5254,VALID,148,VALID,3.54688,
2010-10-08, 02:03:04,VALID,1001.4,VALID,0,VALID,72.8787,VALID,332.763,VALID,30.3109,VALID,141,VALID,2.19609,
2010-10-08, 02:04:04,VALID,1001.41,VALID,0,VALID,74.0078,VALID,383.447,VALID,30.2913,VALID,157,VALID,1.11797,
2010-10-08, 02:05:04,VALID,1001.39,VALID,0,VALID,72.7032,VALID,375.401,VALID,30.2718,VALID,170,VALID,1.86406,
2010-10-08, 02:06:04,VALID,1001.41,VALID,0,VALID,75.4344,VALID,356.194,VALID,30.172,VALID,144,VALID,1.87539,
2010-10-08, 02:07:04,VALID,1001.42,VALID,0,VALID,74.3663,VALID,340.104,VALID,30.2305,VALID,194,VALID,1.87695,
2010-10-08, 02:08:04,VALID,1001.37,VALID,0,VALID,73.1533,VALID,334.171,VALID,30.2718,VALID,148,VALID,1.76133,
2010-10-08, 02:09:04,VALID,1001.35,VALID,0,VALID,73.7408,VALID,301.387,VALID,30.1525,VALID,171,VALID,1.59531,
2010-10-08, 02:10:04,VALID,1001.33,VALID,0,VALID,73.3669,VALID,295.353,VALID,30.1158,VALID,138,VALID,2.11836,
2010-10-08, 02:11:04,VALID,1001.32,VALID,0,VALID,74.0688,VALID,419.85,VALID,30.1181,VALID,134,VALID,1.61484,
2010-10-08, 02:12:04,VALID,1001.32,VALID,0,VALID,73.6797,VALID,437.549,VALID,30.1181,VALID,182,VALID,1.61445,
2010-10-08, 02:13:04,VALID,1001.32,VALID,0,VALID,72.2989,VALID,419.146,VALID,30.1181,VALID,138,VALID,3.3918,
2010-10-08, 02:14:04,VALID,1001.31,VALID,0,VALID,74.1069,VALID,398.229,VALID,30.0963,VALID,185,VALID,2.44414,
2010-10-08, 02:15:04,VALID,1001.34,VALID,0,VALID,72.4286,VALID,382.441,VALID,30.0791,VALID,156,VALID,2.45977,
2010-10-08, 02:16:04,VALID,1001.31,VALID,0,VALID,72.3599,VALID,352.171,VALID,29.9621,VALID,191,VALID,2.56523,
2010-10-08, 02:17:04,VALID,1001.3,VALID,0,VALID,74.1756,VALID,315.265,VALID,29.9231,VALID,129,VALID,1.46016,
2010-10-08, 02:18:04,VALID,1001.34,VALID,0,VALID,75.0377,VALID,287.711,VALID,29.9231,VALID,153,VALID,1.77852,
2010-10-08, 02:19:04,VALID,1001.26,VALID,0,VALID,72.6803,VALID,318.181,VALID,29.845,VALID,136,VALID,2.67188,
2010-10-08, 02:20:04,VALID,1001.25,VALID,0,VALID,70.4985,VALID,321.701,VALID,29.8255,VALID,148,VALID,2.31953,
2010-10-08, 02:21:04,VALID,1001.25,VALID,0,VALID,72.4362,VALID,338.797,VALID,29.845,VALID,156,VALID,2.2293,
2010-10-08, 02:22:04,VALID,1001.27,VALID,0,VALID,74.6715,VALID,350.764,VALID,29.806,VALID,163,VALID,1.95742,
2010-10-08, 02:23:04,VALID,1001.21,VALID,0,VALID,74.7173,VALID,383.949,VALID,29.8428,VALID,171,VALID,1.73242,
2010-10-08, 02:24:04,VALID,1001.19,VALID,0,VALID,74.8622,VALID,426.487,VALID,29.8818,VALID,160,VALID,0.991797,
2010-10-08, 02:25:04,VALID,1001.23,VALID,0,VALID,75.854,VALID,437.449,VALID,29.9403,VALID,146,VALID,1.56094,
2010-10-08, 02:26:04,VALID,1001.23,VALID,0,VALID,72.8482,VALID,340.707,VALID,30.0183,VALID,163,VALID,2.24219,
2010-10-08, 02:27:04,VALID,1001.19,VALID,0,VALID,69.7051,VALID,481.194,VALID,29.9988,VALID,156,VALID,2.62031,
2010-10-08, 02:28:04,VALID,1001.18,VALID,0,VALID,71.742,VALID,626.407,VALID,29.9185,VALID,144,VALID,1.97734,
2010-10-08, 02:29:04,VALID,1001.19,VALID,0,VALID,73.2525,VALID,421.66,VALID,29.9185,VALID,137,VALID,1.28516,
2010-10-08, 02:30:04,VALID,1001.15,VALID,0,VALID,73.8018,VALID,390.184,VALID,30.0573,VALID,141,VALID,1.22305,
2010-10-08, 02:31:04,VALID,1001.14,VALID,0,VALID,71.9403,VALID,730.891,VALID,30.055,VALID,188,VALID,2.16445,
2010-10-08, 02:32:04,VALID,1001.14,VALID,0,VALID,71.1927,VALID,681.414,VALID,30.1548,VALID,154,VALID,2.23516,
2010-10-08, 02:33:04,VALID,1001.12,VALID,0,VALID,71.0173,VALID,596.439,VALID,30.1548,VALID,124,VALID,2.57852,
2010-10-08, 02:34:04,VALID,1001.14,VALID,0,VALID,73.0084,VALID,561.845,VALID,30.1353,VALID,114,VALID,1.69687,
2010-10-08, 02:35:04,VALID,1001.06,VALID,0,VALID,70.8647,VALID,460.176,VALID,30.1938,VALID,140,VALID,2.70547,
2010-10-08, 02:36:04,VALID,1001.06,VALID,0,VALID,71.2385,VALID,352.171,VALID,30.2133,VALID,159,VALID,3.44297,
2010-10-08, 02:37:04,VALID,1001.08,VALID,0,VALID,72.2684,VALID,558.124,VALID,30.1548,VALID,146,VALID,1.87383,
2010-10-08, 02:38:04,VALID,1001.04,VALID,0,VALID,70.3307,VALID,325.623,VALID,30.055,VALID,122,VALID,2.09687,
2010-10-08, 02:39:04,VALID,1001.01,VALID,0,VALID,73.0313,VALID,725.059,VALID,30.0768,VALID,154,VALID,2.14023,
2010-10-08, 02:40:04,VALID,1000.99,VALID,0,VALID,72.5507,VALID,656.978,VALID,30.0745,VALID,131,VALID,2.29922,
2010-10-08, 02:41:04,VALID,1000.97,VALID,0,VALID,72.0624,VALID,737.73,VALID,30.0745,VALID,155,VALID,1.61367,
2010-10-08, 02:42:04,VALID,1000.95,VALID,0,VALID,69.9797,VALID,615.546,VALID,30.2328,VALID,133,VALID,2.57188,
2010-10-08, 02:43:04,VALID,1000.9,VALID,0,VALID,70.3307,VALID,682.42,VALID,30.2718,VALID,107,VALID,2.53203,
2010-10-08, 02:44:04,VALID,1000.88,VALID,0,VALID,71.475,VALID,727.673,VALID,30.2718,VALID,152,VALID,2.90117,
2010-10-08, 02:45:04,VALID,1000.85,VALID,0,VALID,72.3904,VALID,746.479,VALID,30.3889,VALID,182,VALID,1.82266,
2010-10-08, 02:46:04,VALID,1000.83,VALID,0,VALID,68.4768,VALID,716.008,VALID,30.4474,VALID,146,VALID,2.31523,
2010-10-08, 02:47:04,VALID,1000.82,VALID,0,VALID,69.0185,VALID,629.222,VALID,30.5449,VALID,135,VALID,2.10391,
2010-10-08, 02:48:04,VALID,1000.82,VALID,0,VALID,69.6059,VALID,544.347,VALID,30.7767,VALID,112,VALID,1.20313,
2010-10-08, 02:49:04,VALID,1000.84,VALID,0,VALID,68.7057,VALID,501.91,VALID,30.74,VALID,126,VALID,2.49219,
2010-10-08, 02:50:04,VALID,1000.83,VALID,0,VALID,66.3102,VALID,592.517,VALID,30.7205,VALID,93,VALID,1.11484,
2010-10-08, 02:51:04,VALID,1000.84,VALID,0,VALID,70.0484,VALID,694.89,VALID,30.6815,VALID,131,VALID,1.89531,
2010-10-08, 02:52:04,VALID,1000.84,VALID,0,VALID,68.2632,VALID,753.116,VALID,30.6034,VALID,142,VALID,2.34141,
2010-10-08, 02:53:04,VALID,1000.81,VALID,0,VALID,68.6447,VALID,735.517,VALID,30.7205,VALID,109,VALID,1.95117,
2010-10-08, 02:54:04,VALID,1000.79,VALID,0,VALID,66.6154,VALID,777.05,VALID,30.7985,VALID,128,VALID,2.40977,
2010-10-08, 02:55:04,VALID,1000.75,VALID,0,VALID,67.8284,VALID,788.916,VALID,30.818,VALID,129,VALID,1.28828,
2010-10-08, 02:56:04,VALID,1000.73,VALID,0,VALID,68.0496,VALID,793.643,VALID,30.9546,VALID,120,VALID,1.26367,
2010-10-08, 02:57:04,VALID,1000.72,VALID,0,VALID,65.3566,VALID,772.122,VALID,31.0521,VALID,100,VALID,1.37383,
2010-10-08, 02:58:04,VALID,1000.66,VALID,0,VALID,64.7768,VALID,780.771,VALID,31.1715,VALID,155,VALID,0.539063,
2010-10-08, 02:59:04,VALID,1000.68,VALID,0,VALID,67.2562,VALID,810.135,VALID,31.3057,VALID,176,VALID,1.38633,
2010-10-08, 03:00:04,VALID,1000.7,VALID,0,VALID,67.2638,VALID,823.108,VALID,31.1887,VALID,161,VALID,2.9793,
2010-10-08, 03:01:04,VALID,1000.69,VALID,0,VALID,68.2251,VALID,806.716,VALID,31.2105,VALID,164,VALID,2.55703,
2010-10-08, 03:02:04,VALID,1000.67,VALID,0,VALID,64.6242,VALID,818.482,VALID,30.9936,VALID,94,VALID,2.22344,
2010-10-08, 03:03:04,VALID,1000.63,VALID,0,VALID,64.7539,VALID,819.085,VALID,31.0131,VALID,137,VALID,1.70664,
2010-10-08, 03:04:04,VALID,1000.62,VALID,0,VALID,64.2123,VALID,861.724,VALID,31.0521,VALID,115,VALID,2.01836,
2010-10-08, 03:05:04,VALID,1000.62,VALID,0,VALID,63.869,VALID,808.627,VALID,31.1496,VALID,126,VALID,1.31094,
2010-10-08, 03:06:04,VALID,1000.57,VALID,0,VALID,65.6847,VALID,273.33,VALID,31.0521,VALID,115,VALID,3.09648,
2010-10-08, 03:07:04,VALID,1000.5,VALID,0,VALID,67.897,VALID,360.116,VALID,30.818,VALID,97,VALID,1.01289,
2010-10-08, 03:08:04,VALID,1000.51,VALID,0,VALID,68.5379,VALID,859.21,VALID,30.8765,VALID,153,VALID,1.9332,
2010-10-08, 03:09:04,VALID,1000.46,VALID,0,VALID,67.157,VALID,834.572,VALID,30.9179,VALID,133,VALID,2.27383,
2010-10-08, 03:10:04,VALID,1000.48,VALID,0,VALID,67.2257,VALID,848.248,VALID,30.9179,VALID,143,VALID,2.25547,
2010-10-08, 03:11:04,VALID,1000.49,VALID,0,VALID,70.6968,VALID,813.655,VALID,30.8937,VALID,191,VALID,1.5957,
2010-10-08, 03:12:04,VALID,1000.51,VALID,0,VALID,69.3008,VALID,667.135,VALID,31.1106,VALID,147,VALID,2.56914,
2010-10-08, 03:13:04,VALID,1000.49,VALID,0,VALID,66.5925,VALID,568.985,VALID,30.9741,VALID,148,VALID,3.24414,
2010-10-08, 03:14:04,VALID,1000.5,VALID,0,VALID,68.7438,VALID,531.073,VALID,30.8375,VALID,136,VALID,2.35859,
2010-10-08, 03:15:04,VALID,1000.45,VALID,0,VALID,68.988,VALID,252.614,VALID,30.6206,VALID,149,VALID,3.01758,
2010-10-08, 03:16:04,VALID,1000.46,VALID,0,VALID,70.2696,VALID,275.14,VALID,30.4646,VALID,124,VALID,2.83711,
2010-10-08, 03:17:04,VALID,1000.46,VALID,0,VALID,71.2614,VALID,316.773,VALID,30.2695,VALID,130,VALID,2.19219,
2010-10-08, 03:18:04,VALID,1000.43,VALID,0,VALID,71.8793,VALID,888.574,VALID,30.25,VALID,107,VALID,2.35,
2010-10-08, 03:19:04,VALID,1000.42,VALID,0,VALID,73.5806,VALID,554.504,VALID,30.5621,VALID,127,VALID,1.66406,
2010-10-08, 03:20:04,VALID,1000.39,VALID,0,VALID,69.4991,VALID,866.651,VALID,30.7376,VALID,138,VALID,2.67188,
2010-10-08, 03:21:04,VALID,1000.48,VALID,0,VALID,69.9263,VALID,903.055,VALID,30.7572,VALID,141,VALID,2.84414,
2010-10-08, 03:22:04,VALID,1000.43,VALID,0,VALID,68.7133,VALID,881.736,VALID,30.7985,VALID,119,VALID,1.73086,
2010-10-08, 03:23:04,VALID,1000.41,VALID,0,VALID,67.7597,VALID,752.613,VALID,30.896,VALID,125,VALID,2.47539,
2010-10-08, 03:24:04,VALID,1000.41,VALID,0,VALID,69.3008,VALID,284.493,VALID,31.0716,VALID,122,VALID,1.93633,
2010-10-08, 03:25:04,VALID,1000.4,VALID,0,VALID,67.6453,VALID,250.402,VALID,31.0326,VALID,146,VALID,2.62852,
2010-10-08, 03:26:04,VALID,1000.44,VALID,0,VALID,67.4012,VALID,242.256,VALID,30.779,VALID,135,VALID,2.35078,
2010-10-08, 03:27:04,VALID,1000.49,VALID,0,VALID,68.4158,VALID,237.329,VALID,30.5644,VALID,102,VALID,3.42148,
2010-10-08, 03:28:04,VALID,1000.49,VALID,0,VALID,69.6974,VALID,218.825,VALID,30.3304,VALID,112,VALID,1.53945,
2010-10-08, 03:29:04,VALID,1000.53,VALID,0,VALID,71.4902,VALID,151.347,VALID,30.2328,VALID,93,VALID,1.35938,
2010-10-08, 03:30:04,VALID,1000.52,VALID,0,VALID,71.9403,VALID,130.631,VALID,30.1548,VALID,94,VALID,1.02109,
2010-10-08, 03:31:04,VALID,1000.53,VALID,0,VALID,72.5888,VALID,126.106,VALID,30.0963,VALID,15,VALID,0.940625,
2010-10-08, 03:32:04,VALID,1000.56,VALID,0,VALID,74.0917,VALID,127.715,VALID,30.0183,VALID,46,VALID,0.967969,
2010-10-08, 03:33:04,VALID,1000.54,VALID,0,VALID,73.8323,VALID,125,VALID,29.8623,VALID,80,VALID,0.770703,
2010-10-08, 03:34:04,VALID,1000.54,VALID,0,VALID,73.3441,VALID,116.653,VALID,29.7063,VALID,113,VALID,1.50664,